Location: Central Coast
(33.3208°S, 151.2336°E)
Time: 20:34:16
(UTC+11:00)

Tiangong 2 - Pass Details

Date: 10 October 2017
Orbit: 388 x 392 km, 42.8° (Epoch: 16 October)

Event Time Altitude Azimuth Distance (km) Brightness Sun altitude
Rises 21:27:25 0° 235° (SW) 2,297 6.2 -28.9°
Reaches altitude 10° 21:29:40 10° 223° (SW) 1,437 4.8 -29.3°
Enters shadow 21:30:11 13° 218° (SW) 1,263 4.4 -29.4°
